Time,TemperatureF,DewpointF,PressureIn,WindDirection,WindDirectionDegrees,WindSpeedMPH,WindSpeedGustMPH,Humidity,HourlyPrecipIn,Conditions,Clouds,dailyrainin,SoftwareType,DateUTC
2013-06-14 00:00:00,55.5,45.0,29.95,ESE,120,0.0,0.0,68,0.00,,,0.00,weatherlink.com 1.10,2013-06-14 07:00:00,
2013-06-14 00:14:00,54.3,45.0,29.95,ESE,120,0.0,0.0,71,0.00,,,0.00,weatherlink.com 1.10,2013-06-14 07:14:00,
2013-06-14 00:29:00,53.4,45.0,29.94,ESE,120,0.0,0.0,73,0.00,,,0.00,weatherlink.com 1.10,2013-06-14 07:29:00,
2013-06-14 00:44:00,52.8,45.0,29.94,ESE,120,0.0,0.0,75,0.00,,,0.00,weatherlink.com 1.10,2013-06-14 07:44:00,
2013-06-14 00:59:00,52.6,45.0,29.93,ESE,120,0.0,0.0,76,0.00,,,0.00,weatherlink.com 1.10,2013-06-14 07:59:00,
2013-06-14 01:14:00,52.4,45.0,29.93,ESE,120,0.0,0.0,77,0.00,,,0.00,weatherlink.com 1.10,2013-06-14 08:14:00,
2013-06-14 01:29:00,52.4,45.0,29.93,ESE,120,0.0,0.0,77,0.00,,,0.00,weatherlink.com 1.10,2013-06-14 08:29:00,
2013-06-14 01:45:00,52.0,45.0,29.93,ESE,120,0.0,0.0,77,0.00,,,0.00,weatherlink.com 1.10,2013-06-14 08:45:00,
2013-06-14 02:00:00,51.8,46.0,29.93,ESE,120,0.0,0.0,79,0.00,,,0.00,weatherlink.com 1.10,2013-06-14 09:00:00,
2013-06-14 02:15:00,51.7,45.0,29.93,ESE,120,0.0,0.0,78,0.00,,,0.00,weatherlink.com 1.10,2013-06-14 09:15:00,
2013-06-14 02:30:00,51.4,45.0,29.92,ESE,120,0.0,0.0,80,0.00,,,0.00,weatherlink.com 1.10,2013-06-14 09:30:00,
2013-06-14 02:45:00,51.1,45.0,29.92,ESE,120,0.0,0.0,80,0.00,,,0.00,weatherlink.com 1.10,2013-06-14 09:45:00,
2013-06-14 03:00:00,50.9,45.0,29.91,ESE,120,0.0,0.0,81,0.00,,,0.00,weatherlink.com 1.10,2013-06-14 10:00:00,
2013-06-14 03:15:00,50.9,45.0,29.91,ESE,120,0.0,0.0,81,0.00,,,0.00,weatherlink.com 1.10,2013-06-14 10:15:00,
2013-06-14 03:30:00,51.0,45.0,29.91,ESE,120,0.0,0.0,81,0.00,,,0.00,weatherlink.com 1.10,2013-06-14 10:30:00,
2013-06-14 03:45:00,51.1,45.0,29.90,ESE,120,0.0,0.0,81,0.00,,,0.00,weatherlink.com 1.10,2013-06-14 10:45:00,
2013-06-14 04:00:00,51.3,46.0,29.90,ESE,122,0.0,0.0,81,0.00,,,0.00,weatherlink.com 1.10,2013-06-14 11:00:00,
2013-06-14 04:15:00,50.7,45.0,29.90,ESE,121,0.0,0.0,82,0.00,,,0.00,weatherlink.com 1.10,2013-06-14 11:15:00,
2013-06-14 04:30:00,50.4,45.0,29.90,ESE,121,0.0,0.0,82,0.00,,,0.00,weatherlink.com 1.10,2013-06-14 11:30:00,
2013-06-14 04:45:00,49.8,45.0,29.89,ESE,121,0.0,0.0,83,0.00,,,0.00,weatherlink.com 1.10,2013-06-14 11:45:00,
2013-06-14 05:00:00,49.2,45.0,29.89,ESE,121,0.0,0.0,84,0.00,,,0.00,weatherlink.com 1.10,2013-06-14 12:00:00,
2013-06-14 05:15:00,48.9,45.0,29.90,ESE,121,0.0,0.0,85,0.00,,,0.00,weatherlink.com 1.10,2013-06-14 12:15:00,
2013-06-14 05:30:00,48.7,44.0,29.90,ESE,121,0.0,0.0,85,0.00,,,0.00,weatherlink.com 1.10,2013-06-14 12:30:00,
2013-06-14 05:45:00,48.7,44.0,29.90,ESE,121,0.0,0.0,85,0.00,,,0.00,weatherlink.com 1.10,2013-06-14 12:45:00,
2013-06-14 06:00:00,48.5,45.0,29.90,ESE,121,0.0,0.0,86,0.00,,,0.00,weatherlink.com 1.10,2013-06-14 13:00:00,
2013-06-14 06:15:00,48.9,45.0,29.90,ESE,121,0.0,0.0,87,0.00,,,0.00,weatherlink.com 1.10,2013-06-14 13:15:00,
2013-06-14 06:30:00,49.6,46.0,29.90,ESE,121,0.0,0.0,86,0.00,,,0.00,weatherlink.com 1.10,2013-06-14 13:30:00,
2013-06-14 06:45:00,51.0,47.0,29.90,ESE,121,0.0,0.0,85,0.00,,,0.00,weatherlink.com 1.10,2013-06-14 13:45:00,
2013-06-14 07:00:00,51.9,48.0,29.90,ESE,121,0.0,0.0,85,0.00,,,0.00,weatherlink.com 1.10,2013-06-14 14:00:00,
2013-06-14 07:15:00,53.5,49.0,29.90,ESE,121,0.0,0.0,83,0.00,,,0.00,weatherlink.com 1.10,2013-06-14 14:15:00,
2013-06-14 07:30:00,55.9,49.0,29.90,ESE,121,0.0,0.0,78,0.00,,,0.00,weatherlink.com 1.10,2013-06-14 14:30:00,
2013-06-14 07:45:00,59.0,50.0,29.90,ESE,121,0.0,0.0,71,0.00,,,0.00,weatherlink.com 1.10,2013-06-14 14:45:00,
2013-06-14 08:00:00,62.6,50.0,29.90,ENE,72,0.0,0.0,64,0.00,,,0.00,weatherlink.com 1.10,2013-06-14 15:00:00,
2013-06-14 08:15:00,68.4,50.0,29.89,ENE,58,0.0,0.0,52,0.00,,,0.00,weatherlink.com 1.10,2013-06-14 15:15:00,
2013-06-14 08:30:00,73.2,49.0,29.89,SSE,165,0.0,0.0,43,0.00,,,0.00,weatherlink.com 1.10,2013-06-14 15:30:00,
2013-06-14 08:46:00,75.5,50.0,29.89,SSE,161,0.0,0.0,41,0.00,,,0.00,weatherlink.com 1.10,2013-06-14 15:46:00,
2013-06-14 09:01:00,80.0,49.0,29.89,SSE,155,0.0,0.0,34,0.00,,,0.00,weatherlink.com 1.10,2013-06-14 16:01:00,
2013-06-14 09:16:00,80.0,48.0,29.89,NE,53,0.0,0.0,32,0.00,,,0.00,weatherlink.com 1.10,2013-06-14 16:16:00,
2013-06-14 09:31:00,80.3,46.0,29.89,North,6,0.0,0.0,30,0.00,,,0.00,weatherlink.com 1.10,2013-06-14 16:31:00,
2013-06-14 09:46:00,81.2,46.0,29.88,SE,139,0.0,0.0,29,0.00,,,0.00,weatherlink.com 1.10,2013-06-14 16:46:00,
2013-06-14 10:01:00,82.7,46.0,29.88,South,190,2.0,2.0,28,0.00,,,0.00,weatherlink.com 1.10,2013-06-14 17:01:00,
2013-06-14 10:16:00,85.2,47.0,29.87,South,187,1.0,2.0,26,0.00,,,0.00,weatherlink.com 1.10,2013-06-14 17:16:00,
2013-06-14 10:31:00,85.2,46.0,29.87,SSE,154,1.0,2.0,25,0.00,,,0.00,weatherlink.com 1.10,2013-06-14 17:31:00,
2013-06-14 10:46:00,86.7,47.0,29.87,SSW,210,1.0,2.0,25,0.00,,,0.00,weatherlink.com 1.10,2013-06-14 17:46:00,
2013-06-14 11:01:00,87.9,47.0,29.87,SSE,148,0.0,2.0,24,0.00,,,0.00,weatherlink.com 1.10,2013-06-14 18:01:00,
2013-06-14 11:16:00,90.0,41.0,29.86,ENE,67,2.0,2.0,18,0.00,,,0.00,weatherlink.com 1.10,2013-06-14 18:16:00,
2013-06-14 11:31:00,89.0,43.0,29.86,SSW,212,1.0,3.0,20,0.00,,,0.00,weatherlink.com 1.10,2013-06-14 18:31:00,
2013-06-14 11:46:00,89.1,43.0,29.86,SSW,205,2.0,4.0,20,0.00,,,0.00,weatherlink.com 1.10,2013-06-14 18:46:00,
2013-06-14 12:01:00,90.3,43.0,29.85,ENE,57,0.0,4.0,19,0.00,,,0.00,weatherlink.com 1.10,2013-06-14 19:01:00,
2013-06-14 12:16:00,90.4,43.0,29.85,SSE,158,0.0,4.0,19,0.00,,,0.00,weatherlink.com 1.10,2013-06-14 19:16:00,
2013-06-14 12:31:00,91.1,41.0,29.84,SE,126,0.0,3.0,17,0.00,,,0.00,weatherlink.com 1.10,2013-06-14 19:31:00,
2013-06-14 12:46:00,92.7,40.0,29.84,ESE,120,1.0,2.0,16,0.00,,,0.00,weatherlink.com 1.10,2013-06-14 19:46:00,
2013-06-14 13:01:00,93.2,41.0,29.84,ENE,60,1.0,4.0,16,0.00,,,0.00,weatherlink.com 1.10,2013-06-14 20:01:00,
2013-06-14 13:16:00,93.5,44.0,29.83,SE,127,1.0,3.0,18,0.00,,,0.00,weatherlink.com 1.10,2013-06-14 20:16:00,
2013-06-14 13:31:00,88.3,46.0,29.83,NE,48,2.0,9.0,23,0.00,,,0.00,weatherlink.com 1.10,2013-06-14 20:31:00,
2013-06-14 13:46:00,87.1,44.0,29.83,ENE,70,4.0,9.0,22,0.00,,,0.00,weatherlink.com 1.10,2013-06-14 20:46:00,
2013-06-14 14:01:00,86.5,42.0,29.82,East,97,4.0,10.0,21,0.00,,,0.00,weatherlink.com 1.10,2013-06-14 21:01:00,
2013-06-14 14:16:00,86.6,42.0,29.82,NNW,344,4.0,8.0,21,0.00,,,0.00,weatherlink.com 1.10,2013-06-14 21:16:00,
2013-06-14 14:31:00,87.0,43.0,29.82,NW,324,2.0,7.0,21,0.00,,,0.00,weatherlink.com 1.10,2013-06-14 21:31:00,
2013-06-14 14:47:00,86.2,43.0,29.82,NE,54,4.0,9.0,22,0.00,,,0.00,weatherlink.com 1.10,2013-06-14 21:47:00,
2013-06-14 15:02:00,85.1,42.0,29.81,NNE,25,8.0,12.0,22,0.00,,,0.00,weatherlink.com 1.10,2013-06-14 22:02:00,
2013-06-14 15:17:00,81.9,45.0,29.82,ESE,123,2.0,10.0,27,0.00,,,0.00,weatherlink.com 1.10,2013-06-14 22:17:00,
2013-06-14 15:32:00,79.7,46.0,29.82,ENE,69,1.0,11.0,30,0.00,,,0.00,weatherlink.com 1.10,2013-06-14 22:32:00,
2013-06-14 15:47:00,78.7,46.0,29.82,ENE,74,2.0,12.0,31,0.00,,,0.00,weatherlink.com 1.10,2013-06-14 22:47:00,
2013-06-14 16:02:00,77.5,45.0,29.81,ENE,68,3.0,9.0,31,0.00,,,0.00,weatherlink.com 1.10,2013-06-14 23:02:00,
2013-06-14 16:17:00,76.5,44.0,29.81,NE,41,7.0,7.0,31,0.00,,,0.00,weatherlink.com 1.10,2013-06-14 23:17:00,
2013-06-14 16:32:00,76.3,45.0,29.80,ENE,69,2.0,8.0,33,0.00,,,0.00,weatherlink.com 1.10,2013-06-14 23:32:00,
2013-06-14 16:47:00,78.2,43.0,29.80,ESE,114,4.0,8.0,29,0.00,,,0.00,weatherlink.com 1.10,2013-06-14 23:47:00,
2013-06-14 17:02:00,79.5,44.0,29.79,ENE,59,1.0,8.0,28,0.00,,,0.00,weatherlink.com 1.10,2013-06-15 00:02:00,
2013-06-14 17:17:00,79.3,42.0,29.79,NE,53,2.0,9.0,27,0.00,,,0.00,weatherlink.com 1.10,2013-06-15 00:17:00,
2013-06-14 17:32:00,79.2,43.0,29.79,NE,56,3.0,7.0,28,0.00,,,0.00,weatherlink.com 1.10,2013-06-15 00:32:00,
2013-06-14 17:47:00,78.3,44.0,29.78,SSE,154,0.0,7.0,30,0.00,,,0.00,weatherlink.com 1.10,2013-06-15 00:47:00,
2013-06-14 18:02:00,77.6,44.0,29.78,ENE,60,4.0,6.0,30,0.00,,,0.00,weatherlink.com 1.10,2013-06-15 01:02:00,
2013-06-14 18:17:00,76.4,44.0,29.78,East,80,0.0,6.0,32,0.00,,,0.00,weatherlink.com 1.10,2013-06-15 01:17:00,
2013-06-14 18:32:00,75.1,46.0,29.78,ENE,57,7.0,7.0,35,0.00,,,0.00,weatherlink.com 1.10,2013-06-15 01:32:00,
2013-06-14 18:47:00,72.9,45.0,29.78,East,94,1.0,7.0,37,0.00,,,0.00,weatherlink.com 1.10,2013-06-15 01:47:00,
2013-06-14 19:02:00,71.7,45.0,29.78,SE,145,1.0,6.0,38,0.00,,,0.00,weatherlink.com 1.10,2013-06-15 02:02:00,
2013-06-14 19:17:00,70.7,44.0,29.78,ESE,115,0.0,5.0,39,0.00,,,0.00,weatherlink.com 1.10,2013-06-15 02:17:00,
2013-06-14 19:32:00,69.8,45.0,29.78,ENE,61,1.0,4.0,41,0.00,,,0.00,weatherlink.com 1.10,2013-06-15 02:32:00,
2013-06-14 19:47:00,68.5,46.0,29.78,SE,140,0.0,3.0,44,0.00,,,0.00,weatherlink.com 1.10,2013-06-15 02:47:00,
2013-06-14 20:02:00,67.2,45.0,29.78,ENE,58,1.0,2.0,45,0.00,,,0.00,weatherlink.com 1.10,2013-06-15 03:02:00,
2013-06-14 20:17:00,65.6,45.0,29.79,NE,44,0.0,2.0,48,0.00,,,0.00,weatherlink.com 1.10,2013-06-15 03:17:00,
2013-06-14 20:32:00,64.0,45.0,29.78,ENE,78,0.0,2.0,50,0.00,,,0.00,weatherlink.com 1.10,2013-06-15 03:32:00,
2013-06-14 20:47:00,62.6,45.0,29.78,East,79,0.0,1.0,52,0.00,,,0.00,weatherlink.com 1.10,2013-06-15 03:47:00,
2013-06-14 21:02:00,60.2,45.0,29.78,East,79,0.0,0.0,57,0.00,,,0.00,weatherlink.com 1.10,2013-06-15 04:02:00,
2013-06-14 21:17:00,59.9,45.0,29.79,ENE,62,0.0,2.0,59,0.00,,,0.00,weatherlink.com 1.10,2013-06-15 04:17:00,
2013-06-14 21:32:00,58.9,47.0,29.79,ENE,66,1.0,2.0,64,0.00,,,0.00,weatherlink.com 1.10,2013-06-15 04:32:00,
2013-06-14 21:47:00,57.4,46.0,29.80,SE,136,0.0,1.0,66,0.00,,,0.00,weatherlink.com 1.10,2013-06-15 04:47:00,
2013-06-14 22:02:00,55.6,46.0,29.80,WSW,255,0.0,1.0,70,0.00,,,0.00,weatherlink.com 1.10,2013-06-15 05:02:00,
2013-06-14 22:17:00,54.9,46.0,29.80,NNE,28,0.0,0.0,72,0.00,,,0.00,weatherlink.com 1.10,2013-06-15 05:17:00,
2013-06-14 22:32:00,53.3,46.0,29.80,NNE,28,0.0,0.0,76,0.00,,,0.00,weatherlink.com 1.10,2013-06-15 05:32:00,
2013-06-14 22:47:00,52.0,45.0,29.80,NNE,28,0.0,0.0,78,0.00,,,0.00,weatherlink.com 1.10,2013-06-15 05:47:00,
2013-06-14 23:02:00,50.9,46.0,29.80,NNE,28,0.0,0.0,82,0.00,,,0.00,weatherlink.com 1.10,2013-06-15 06:02:00,
2013-06-14 23:17:00,50.1,46.0,29.80,NNE,28,0.0,0.0,84,0.00,,,0.00,weatherlink.com 1.10,2013-06-15 06:17:00,
2013-06-14 23:32:00,49.3,45.0,29.80,NNE,28,0.0,0.0,85,0.00,,,0.00,weatherlink.com 1.10,2013-06-15 06:32:00,
2013-06-14 23:47:00,48.8,45.0,29.80,NNE,28,0.0,0.0,87,0.00,,,0.00,weatherlink.com 1.10,2013-06-15 06:47:00,